GW2173 Weather Reports


time (UTC)temp
C
wind
direction
speed
KPH
gust
KPH
rain 1hr
cm
rain 24hr
cm
rain mn
cm
humidity
%
barometer
mb
20260508092625 6 34 3.2 19.3 0.00 0.00 0.00 76 1010.1
20260508091609 6 60 6.4 19.3 0.00 0.00 0.00 76 1010.1
20260508091108 6 25 4.8 19.3 0.00 0.00 0.00 80 1010.2
20260508090607 5 39 4.8 19.3 0.00 0.00 0.00 85 1010.2
20260508090107 5 16 4.8 19.3 0.00 0.00 0.00 88 1010.4
20260508085607 5 12 4.8 19.3 0.00 0.00 0.00 87 1010.4
20260508085107 6 17 4.8 19.3 0.00 0.00 0.00 85 1010.2
20260508084052 6 14 4.8 19.3 0.00 0.00 0.00 85 1010.1
20260508083551 6 12 4.8 19.3 0.00 0.00 0.00 85 1010.2
20260508082535 5 12 4.8 19.3 0.00 0.00 0.00 86 1010.1
20260508082034 6 11 3.2 19.3 0.00 0.00 0.00 85 1010.0
20260508081533 6 15 3.2 19.3 0.00 0.00 0.00 84 1010.5
20260508080519 6 17 4.8 19.3 0.00 0.00 0.00 82 1009.9
20260508080018 6 28 4.8 19.3 0.00 0.00 0.00 79 1010.1
20260508075004 7 51 4.8 19.3 0.00 0.00 0.00 75 1010.0
20260508073948 6 23 6.4 19.3 0.00 0.00 0.00 82 1010.3
20260508073446 6 22 4.8 19.3 0.00 0.00 0.00 87 1010.2
20260508072945 6 5 4.8 19.3 0.00 0.00 0.00 86 1010.0
20260508072444 6 9 4.8 19.3 0.00 0.00 0.00 85 1009.7
20260508071429 6 200 3.2 19.3 0.00 0.00 0.00 85 1010.3
20260508070929 6 0 3.2 19.3 0.00 0.00 0.00 82 1009.4
20260508070429 6 11 4.8 19.3 0.00 0.00 0.00 79 1009.9
20260508065927 6 12 4.8 19.3 0.00 0.00 0.00 80 1009.8
20260508065427 6 2 6.4 19.3 0.00 0.00 0.00 82 1010.0
20260508064926 6 343 4.8 19.3 0.00 0.00 0.00 84 1009.6
20260508064425 6 351 6.4 19.3 0.00 0.00 0.00 83 1009.2
20260508063925 6 244 4.8 19.3 0.00 0.00 0.00 83 1008.2
20260508063424 6 292 4.8 19.3 0.00 0.00 0.00 80 997.2
20260508062923 7 354 4.8 19.3 0.00 0.00 0.00 76 995.2
20260508062423 8 4 3.2 19.3 0.00 0.00 0.00 69 999.0
20260508061921 9 24 6.4 19.3 0.00 0.00 0.00 61 997.6
20260508061421 9 35 8.0 19.3 0.00 0.00 0.00 61 993.2
20260508060921 9 39 6.4 19.3 0.00 0.00 0.00 61 966.4
20260508060419 9 34 4.8 19.3 0.00 0.00 0.00 60 982.6
20260508055919 9 33 4.8 19.3 0.00 0.00 0.00 60 986.7
20260508055418 9 31 4.8 19.3 0.00 0.00 0.00 60 988.3
20260508054917 9 31 6.4 19.3 0.00 0.00 0.00 60 966.3
20260508054416 9 40 4.8 19.3 0.00 0.00 0.00 59 963.5
20260508053916 9 42 3.2 19.3 0.00 0.00 0.00 58 964.3
20260508053415 10 38 3.2 19.3 0.00 0.00 0.00 57 964.6
20260508052915 10 34 3.2 19.3 0.00 0.00 0.00 58 963.9
20260508052415 10 17 4.8 19.3 0.00 0.00 0.00 57 968.2
20260508051400 10 26 4.8 19.3 0.00 0.00 0.00 58 957.6
20260508050859 10 27 4.8 19.3 0.00 0.00 0.00 57 958.2
20260508050359 10 33 6.4 19.3 0.00 0.00 0.00 58 962.6
20260508045858 10 31 8.0 19.3 0.00 0.00 0.00 58 963.9
20260508045357 10 40 6.4 19.3 0.00 0.00 0.00 58 969.7
20260508044856 10 41 3.2 19.3 0.00 0.00 0.00 58 942.6
20260508044355 10 42 4.8 19.3 0.00 0.00 0.00 57 951.7
20260508043854 10 37 4.8 19.3 0.00 0.00 0.00 57 962.6
20260508043353 10 41 4.8 19.3 0.00 0.00 0.00 57 979.7
20260508042852 10 47 4.8 19.3 0.00 0.00 0.00 57 976.9
20260508042351 10 44 3.2 19.3 0.00 0.00 0.00 56 975.9
20260508041850 10 38 4.8 19.3 0.00 0.00 0.00 55 972.6
20260508041350 10 43 4.8 19.3 0.00 0.00 0.00 55 976.1
20260508040334 10 57 3.2 19.3 0.00 0.00 0.00 55 979.0
20260508035833 10 59 3.2 19.3 0.00 0.00 0.00 56 980.7
20260508035333 10 68 3.2 19.3 0.00 0.00 0.00 56 981.2
20260508034832 10 70 3.2 19.3 0.00 0.00 0.00 56 981.4
20260508034331 10 70 3.2 19.3 0.00 0.00 0.00 56 981.8
20260508033830 10 66 3.2 19.3 0.00 0.00 0.00 56 981.8
20260508033330 10 62 3.2 19.3 0.00 0.00 0.00 56 982.6
20260508032830 10 64 3.2 19.3 0.00 0.00 0.00 56 982.7
20260508031813 10 78 3.2 19.3 0.00 0.00 0.00 56 983.3
20260508031313 10 75 3.2 19.3 0.00 0.00 0.00 55 983.3
20260508030813 10 80 4.8 19.3 0.00 0.00 0.00 55 983.5
20260508030313 10 91 3.2 19.3 0.00 0.00 0.00 54 983.5
20260508025813 10 98 3.2 19.3 0.00 0.00 0.00 53 983.3
20260508024757 11 105 4.8 19.3 0.00 0.00 0.00 53 984.2
20260508023741 10 109 3.2 19.3 0.00 0.00 0.00 53 983.6
20260508023240 10 112 4.8 19.3 0.00 0.00 0.00 54 984.1
20260508022740 10 116 4.8 19.3 0.00 0.00 0.00 54 985.6
20260508021207 10 121 4.8 19.3 0.00 0.00 0.00 55 979.0
20260508020150 11 123 4.8 19.3 0.00 0.00 0.00 54 962.2
20260508015649 11 114 4.8 19.3 0.00 0.00 0.00 54 963.8
20260508015148 11 120 6.4 19.3 0.00 0.00 0.00 53 993.1
20260508014647 11 122 6.4 19.3 0.00 0.00 0.00 53 1000.1
20260508014146 11 120 4.8 19.3 0.00 0.00 0.00 52 991.4
20260508013645 11 131 6.4 19.3 0.00 0.00 0.00 52 991.6
20260508013145 11 126 4.8 19.3 0.00 0.00 0.00 52 990.7
20260508012644 11 140 4.8 19.3 0.00 0.00 0.00 52 974.3
20260508012144 11 142 6.4 19.3 0.00 0.00 0.00 51 975.1
20260508011643 11 137 6.4 19.3 0.00 0.00 0.00 50 954.2
20260508011142 11 133 9.7 19.3 0.00 0.00 0.00 50 937.2
20260508010642 12 130 8.0 19.3 0.00 0.00 0.00 51 987.3
20260508010141 12 132 8.0 19.3 0.00 0.00 0.00 51 989.7
20260508004629 12 119 6.4 19.3 0.00 0.00 0.00 49 998.1
20260508004128 12 128 6.4 19.3 0.00 0.00 0.00 49 1000.7
20260508003627 12 126 6.4 19.3 0.00 0.00 0.00 48 1004.3
20260508003126 12 139 6.4 19.3 0.00 0.00 0.00 47 1002.9
20260508001614 13 149 8.0 19.3 0.00 0.00 0.00 45 1005.0
20260507235545 13 77 12.9 22.5 0.00 0.00 0.00 44 1003.5
20260507235044 13 92 9.7 22.5 0.00 0.00 0.00 45 1003.7
20260507234543 13 107 11.3 22.5 0.00 0.00 0.00 44 1003.6
20260507234042 14 100 12.9 22.5 0.00 0.00 0.00 44 1005.7
20260507233541 14 160 12.9 20.9 0.00 0.00 0.00 44 1007.1
20260507233040 14 129 11.3 20.9 0.00 0.00 0.00 44 1007.4
20260507232539 14 119 11.3 20.9 0.00 0.00 0.00 44 1007.0
20260507232039 14 135 9.7 20.9 0.00 0.00 0.00 44 1006.7
20260507231538 15 90 9.7 24.1 0.00 0.00 0.00 43 1007.3
20260507231037 15 129 11.3 30.6 0.00 0.00 0.00 43 1006.6
20260507230536 15 23 14.5 30.6 0.00 0.00 0.00 42 1006.4
20260507230036 15 18 12.9 33.8 0.00 0.00 0.00 42 1007.1
20260507224017 15 73 14.5 30.6 0.00 0.00 0.00 39 1005.9
20260507223517 15 62 12.9 30.6 0.00 0.00 0.00 39 1005.8
20260507223016 15 77 14.5 29.0 0.00 0.00 0.00 37 1005.8
20260507220957 16 333 11.3 29.0 0.00 0.00 0.00 35 1005.8
20260507220456 16 342 12.9 29.0 0.00 0.00 0.00 37 1004.4
20260507215955 16 315 14.5 25.7 0.00 0.00 0.00 36 1004.5
20260507214432 16 332 11.3 29.0 0.00 0.00 0.00 38 1004.3
20260507213931 16 303 12.9 37.0 0.00 0.00 0.00 36 1005.0
20260507212914 16 356 14.5 22.5 0.00 0.00 0.00 37 1006.5
20260507212413 16 348 9.7 25.7 0.00 0.00 0.00 37 1006.2
20260507211912 16 346 11.3 29.0 0.00 0.00 0.00 35 1006.3
20260507210358 16 23 16.1 25.7 0.00 0.00 0.00 36 1005.9
20260507205858 16 332 9.7 22.5 0.00 0.00 0.00 37 1005.8
20260507203839 16 355 4.8 24.1 0.00 0.00 0.00 38 1005.5
20260507203338 16 21 12.9 24.1 0.00 0.00 0.00 37 1005.2
20260507202332 16 350 9.7 29.0 0.00 0.00 0.00 39 1005.4
20260507201831 16 14 9.7 24.1 0.00 0.00 0.00 39 1005.7
20260507201330 16 53 9.7 32.2 0.00 0.00 0.00 42 1005.6
20260507200829 16 15 11.3 32.2 0.00 0.00 0.00 38 1005.8
20260507200328 16 19 9.7 25.7 0.00 0.00 0.00 37 1006.8
20260507195827 16 12 12.9 25.7 0.00 0.00 0.00 38 1007.3
20260507195326 16 24 6.4 29.0 0.00 0.00 0.00 39 1007.0
20260507194825 16 9 16.1 25.7 0.00 0.00 0.00 38 1006.9
20260507194324 16 341 9.7 25.7 0.00 0.00 0.00 38 1006.9
20260507193307 16 353 14.5 29.0 0.00 0.00 0.00 39 1006.4
20260507192806 16 22 11.3 25.7 0.00 0.00 0.00 40 1006.7
20260507192306 16 342 6.4 22.5 0.00 0.00 0.00 39 1006.5
20260507191258 16 35 14.5 29.0 0.00 0.00 0.00 38 1007.0
20260507190757 16 34 12.9 25.7 0.00 0.00 0.00 39 1007.1
20260507190256 16 12 12.9 25.7 0.00 0.00 0.00 40 1006.9
20260507185755 16 60 16.1 29.0 0.00 0.00 0.00 41 1007.1
20260507185254 16 70 17.7 30.6 0.00 0.00 0.00 40 1007.4
20260507184753 16 16 12.9 30.6 0.00 0.00 0.00 41 1007.1
20260507183736 15 87 16.1 24.1 0.00 0.00 0.00 43 1007.5
20260507183234 15 111 6.4 24.1 0.00 0.00 0.00 43 1007.2
20260507182733 15 109 14.5 24.1 0.00 0.00 0.00 40 1006.2
20260507181221 16 55 9.7 19.3 0.00 0.00 0.00 42 1005.8
20260507180720 16 4 9.7 20.9 0.00 0.00 0.00 42 1005.7
20260507174651 15 348 8.0 25.7 0.00 0.00 0.00 48 1006.9
20260507172116 15 12 4.8 20.9 0.00 0.00 0.00 46 1006.4
20260507171615 15 358 14.5 25.7 0.00 0.00 0.00 44 1006.5
20260507170558 15 351 9.7 19.3 0.00 0.00 0.00 49 1006.1
20260507165551 15 4 9.7 17.7 0.00 0.00 0.00 44 1006.7
20260507164535 15 25 9.7 22.5 0.00 0.00 0.00 44 1007.4
20260507164034 14 342 8.0 22.5 0.00 0.00 0.00 49 1006.9
20260507163534 14 21 9.7 25.7 0.00 0.00 0.00 45 1007.8
20260507162021 14 306 11.3 24.1 0.00 0.00 0.00 49 1007.4
20260507161521 13 315 4.8 19.3 0.00 0.00 0.00 50 1006.8
20260507155452 14 329 9.7 20.9 0.00 0.00 0.00 49 1006.7
20260507154952 14 320 6.4 24.1 0.00 0.00 0.00 50 1006.8
20260507154451 13 338 6.4 24.1 0.00 0.00 0.00 52 1006.7
20260507153434 13 125 3.2 20.9 0.00 0.00 0.00 52 1006.5
20260507152428 13 32 6.4 19.3 0.00 0.00 0.00 50 1006.9
20260507151927 13 288 8.0 19.3 0.00 0.00 0.00 51 1006.8
20260507150415 13 92 11.3 20.9 0.00 0.00 0.00 52 1007.0
20260507145914 13 342 8.0 17.7 0.00 0.00 0.00 53 1006.8
20260507144907 13 48 9.7 22.5 0.00 0.00 0.00 56 1005.7
20260507143900 12 150 8.0 20.9 0.00 0.00 0.00 57 1006.0
20260507142853 12 313 6.4 20.9 0.00 0.00 0.00 61 1005.2
20260507140834 12 310 0.0 20.9 0.00 0.00 0.00 64 1005.5
20260507140334 12 330 8.0 20.9 0.00 0.00 0.00 66 1005.2
20260507135833 11 285 1.6 20.9 0.00 0.00 0.00 67 1005.1
20260507135333 11 276 4.8 20.9 0.00 0.00 0.00 68 1005.4
20260507134326 11 287 6.4 20.9 0.00 0.00 0.00 67 1005.5
20260507133825 11 301 3.2 20.9 0.00 0.00 0.00 68 1005.5
20260507133325 11 314 4.8 20.9 0.00 0.00 0.00 68 1005.5
20260507132825 11 279 4.8 20.9 0.00 0.00 0.00 70 1005.6
20260507132324 11 299 6.4 20.9 0.00 0.00 0.00 69 1005.6
20260507131317 10 291 4.8 20.9 0.00 0.00 0.00 67 1005.4
20260507130311 10 324 1.6 20.9 0.00 0.00 0.00 75 1006.9
20260507125811 10 308 1.6 20.9 0.00 0.00 0.00 76 1006.9
20260507125310 10 301 1.6 20.9 0.00 0.00 0.00 77 1007.0
20260507124809 10 308 3.2 20.9 0.00 0.00 0.00 78 1007.0
20260507123256 9 311 3.2 20.9 0.00 0.00 0.00 77 1006.9
20260507122755 10 320 3.2 20.9 0.00 0.00 0.00 74 1007.0
20260507121242 10 334 0.0 20.9 0.00 0.00 0.00 77 1006.1
20260507120741 9 329 0.0 20.9 0.00 0.00 0.00 83 1004.1
20260507120240 8 327 0.0 20.9 0.00 0.00 0.00 77 1007.1
20260507115233 8 40 0.0 20.9 0.00 0.00 0.00 80 1005.6
20260507114732 8 14 0.0 20.9 0.00 0.00 0.00 81 1008.0
20260507114231 7 3 0.0 20.9 0.00 0.00 0.00 82 1009.2
20260507113730 7 40 3.2 20.9 0.00 0.00 0.00 83 1009.2
20260507113229 7 98 3.2 20.9 0.00 0.00 0.00 84 1009.4
20260507111707 7 109 3.2 20.9 0.00 0.00 0.00 84 1008.0
20260507111207 7 110 4.8 20.9 0.00 0.00 0.00 84 1007.4
20260507110706 7 110 4.8 20.9 0.00 0.00 0.00 84 1005.7
20260507110205 7 101 4.8 20.9 0.00 0.00 0.00 84 994.2
20260507105705 7 109 4.8 20.9 0.00 0.00 0.00 84 993.5
20260507104658 7 93 4.8 20.9 0.00 0.00 0.00 83 994.6
20260507104158 7 69 4.8 20.9 0.00 0.00 0.00 83 994.2
20260507103657 7 73 4.8 20.9 0.00 0.00 0.00 84 993.9
20260507103156 7 50 4.8 20.9 0.00 0.00 0.00 85 994.0
20260507102656 7 37 4.8 20.9 0.00 0.00 0.00 84 993.9
20260507102154 7 50 4.8 20.9 0.00 0.00 0.00 83 993.9
20260507101653 7 49 4.8 20.9 0.00 0.00 0.00 83 993.8
20260507101152 7 49 4.8 20.9 0.00 0.00 0.00 84 993.6
20260507100651 7 46 6.4 20.9 0.00 0.00 0.00 86 994.1
20260507100150 7 43 6.4 20.9 0.00 0.00 0.00 86 993.8
20260507095649 7 57 6.4 20.9 0.00 0.00 0.00 86 993.5
20260507095149 7 49 6.4 20.9 0.00 0.00 0.00 86 992.1
20260507094648 7 48 6.4 20.9 0.00 0.00 0.00 87 994.8
20260507094148 7 53 6.4 20.9 0.00 0.00 0.00 87 989.4
20260507093647 7 21 6.4 20.9 0.00 0.00 0.00 87 992.5
20260507093148 8 44 6.4 20.9 0.00 0.00 0.00 86 993.9